Regional Weather Roundup
Issued by NWS Charleston, SC

Current Version | Previous Version | Graphics & Text | Print | Product List | Glossary On
Versions: 1 2 3 4 5 6 7 8 9 10 11 12 13 14 15 16 17 18 19 20 21 22 23 24 25 26 27 28 29 30 31 32 33 34 35 36 37 38 39 40 41 42 43 44 45 46 47 48 49 50
000
ASUS42 KCHS 030811
RWRCHS

REGIONAL WEATHER ROUNDUP
NATIONAL WEATHER SERVICE CHARLESTON SC
300 AM EST TUE MAR 03 2015

NOTE: "FAIR" INDICATES FEW OR NO CLOUDS BELOW 12,000 FEET WITH NO
SIGNIFICANT WEATHER AND/OR OBSTRUCTIONS TO VISIBILITY.

NOT ALL STATIONS ARE QUALITY CONTROLLED BY THE NATIONAL
WEATHER SERVICE. USE DATA WITH CAUTION...ESPECIALLY
DEWPOINT OBSERVATIONS.

SCZ027-030-031-034>040-042>050-030900-
...SOUTHEAST SOUTH CAROLINA...

CITY           SKY/WX    TMP DP  RH WIND       PRES   REMARKS
N CHARLESTON   MOCLDY    56  52  86 NE8       30.25R
WATERFRONT PRK   N/A     54 N/A N/A NE12        N/A
MOUNT PLEASANT PTSUNNY   55  54  94 NE6       30.25R
PINOPOLIS      NOT AVBL
MONCKS CORNER  CLOUDY    57  52  82 E8        30.25S
SUMMERVILLE    CLOUDY    55  52  88 NE3       30.26R
BEAUFORT MCAS  CLOUDY    56  55  97 CALM      30.21F
BEAUFORT ARPT  PTSUNNY   55  55 100 CALM      30.21F
HILTON HEAD IS FOG       54  54 100 N5        30.23S VSB<1/4
WALTERBORO     CLOUDY    55  54  94 CALM      30.25R
ALLENDALE      CLOUDY    59  55  88 VRB5      30.22S

...SOUTHERN MIDLANDS AND PEE DEE...

CITY           SKY/WX    TMP DP  RH WIND       PRES   REMARKS
GEORGETOWN     NOT AVBL
KINGSTREE      NOT AVBL
ORANGEBURG     CLOUDY    57  50  77 E3        30.24F
BARNWELL       CLOUDY    59  55  88 E9        30.23S
AIKEN          CLOUDY    55  52  88 E6        30.25F
MANNING        CLOUDY    55  45  67 E5        30.26S
COLUMBIA       CLOUDY    58  51  78 E8        30.24F
SUMTER         CLOUDY    54  51  88 E8        30.24F
FLORENCE       CLOUDY    49  45  86 E12       30.29F
MYRTLE BEACH   CLOUDY    48  41  76 NE15G24   30.31F
N MYRTLE BEACH CLOUDY    48  41  76 NE10      30.29F

$$

GAZ063-065-086>088-099>101-113>116-118-119-134>141-150-030900-
...SOUTHEAST GEORGIA...

CITY           SKY/WX    TMP DP  RH WIND       PRES   REMARKS
SAVANNAH ARPT  CLOUDY    55  54  94 E5        30.20F FOG
HUNTER AAF     MOCLDY    56  56 100 E3        30.18F
FORT STEWART   MOCLDY    55  55 100 CALM      30.18F FOG
STATESBORO     RAIN      60  60 100 CALM      30.21S
SYLVANIA       CLOUDY    58  58 100 SE5       30.22S
CLAXTON        CLOUDY    55  55 100 CALM      30.19F

...CSRA...CENTRAL AND FAR SOUTHEAST GEORGIA...

CITY           SKY/WX    TMP DP  RH WIND       PRES   REMARKS
THOMSON        CLOUDY    59  59 100 CALM      30.26R
AUGUSTA-BUSH   CLOUDY    58  55  90 CALM      30.20F
AUGUSTA-DANIEL CLOUDY    61  54  77 E5        30.20F
SWAINSBORO     NOT AVBL
VIDALIA        CLOUDY    61  61 100 CALM      30.19F
EASTMAN        CLOUDY    60  60 100 CALM      30.23R
HAZLEHURST     CLOUDY    60  60 100 CALM      30.19R FOG
ALMA           FOG       55  54  96 CALM      30.19F VSB 1/2
WAYCROSS       MOCLDY    61  60  99 CALM      30.19F FOG
JESUP          FOG       61  59  94 CALM      30.20F VSB 3/4
BAXLEY         FOG       59  57  94 CALM      30.19S VSB 1/2
BRUNSWICK      MOCLDY    59  55  88 CALM      30.20F
SAINT SIMONS   CLOUDY    58  57  97 SW6       30.20F

$$

SCZ027-028-034-036>038-045-046-048>050-GAZ119-141-030900-
...LAKE AND SUPPLEMENTAL COASTAL OBSERVATIONS...

STATION/POSITION TIME  TEMP    WIND        PRES    WAVE   SWELL
                       AIR SEA DIR/SP/G            HT/PER HT/PER/DIR
                 (UTC) (F)     (DEG/KT/KT) (MB)    (FT/S) (FT/S/D)
UPR LAKE MARION  NOT AVBL
WINYAH BAY       0645   49      50/ 11     1024.0
LAKE MURRAY      0700   56      80/  6/  9 1024.0R
ACE BASIN NERRS  NOT AVBL
FORT PULASKI     0700           60/  6/  8   N/A
SAPELO ISLAND    0700   57     170/  5     1023.0S

$$

ANZ835-935-AMZ111-154-330-350-352-354-370-450-454-472-030900-
...C-MAN AND BUOY OBSERVATIONS...

STATION/POSITION TIME  TEMP    WIND        PRES    WAVE   SWELL
                       AIR SEA DIR/SP/G            HT/PER HT/PER/DIR
                 (UTC) (F)     (DEG/KT/KT) (MB)    (FT/S) (FT/S/D)
BUOY 41004       0750   66 67   90/ 14/ 16 1022.6F   4/ 7   3/ 7
BUOY 41008       0750   54 52  240/  4/  4 1022.9F   2/ 9   2/100/ 9
FOLLY BEACH CMAN 0800   51      50/ 14/ 15 1024.1F
CAPERS NEARSHORE NOT AVBL
FRIPP NEARSHORE  0700   51      40/ 10/ 10 1022.7F


STATION/POSITION TIME  TEMP    WIND        PRES    WAVE   SWELL
                       AIR SEA DIR/SP/G            HT/PER HT/PER/DIR
                 (UTC) (F)     (DEG/KT/KT) (MB)    (FT/S) (FT/S/D)
5E ST. MARYS GA  0721      54                N/A     2/ 8
FRYING PAN BUOY  0750   58 61   60/ 19/ 21 1025.2R   6/ 7   2/140/ 9
BUOY 41025       NOT AVBL
CAPE LOOKOUT NC  0700   46      40/ 23/ 25 1027.7F
BUOY 41002       0750   66 73   40/ 16/ 21 1023.7F   6/ 8   3/120/ 8
BUOY 41010       0720   73 75   50/  8/ 10 1022.8F
ST AUGUSTINE FL  0800   60     340/  2/  2 1023.5F


$$



USA.gov is the U.S. government's official web portal to all federal, state and local government web resources and services.